EW7736 Weather Reports


Display with metric or nautical units.
time (UTC)temp
F
wind
direction
speed
MPH
gust
MPH
rain 1hr
in
rain 24hr
in
rain mn
in
humidity
%
barometer
mb
20260903164237 81 72 0.0 5.0 0.00 0.01 0.01 72 1017.2
20260903163204 80 338 0.0 5.0 0.00 0.01 0.01 73 1017.5
20260903162141 79 53 0.0 4.0 0.00 0.01 0.01 73 1017.6
20260903161122 79 56 0.0 4.0 0.00 0.01 0.01 74 1017.9
20260903160137 77 24 0.0 4.0 0.00 0.01 0.01 75 1018.0
20260903154038 76 295 0.0 0.0 0.00 0.01 0.01 74 1018.4
20260903153031 76 300 0.0 2.0 0.00 0.01 0.01 74 1018.6
20260903152045 76 348 0.0 3.0 0.00 0.01 0.01 74 1018.3
20260903151018 76 268 0.0 3.0 0.00 0.01 0.01 73 1018.0
20260903150002 75 82 0.0 3.0 0.00 0.01 0.01 74 1018.2
20260903143749 74 188 0.0 0.0 0.00 0.01 0.01 58 1018.5
20260903141634 73 192 0.0 0.0 0.00 0.01 0.01 59 1018.9
20260903140602 73 155 0.0 0.0 0.00 0.01 0.01 55 1018.7
20260903134449 73 155 0.0 0.0 0.00 0.01 0.01 42 1018.0
20260903133500 73 160 0.0 0.0 0.00 0.01 0.01 46 1018.3
20260903132453 72 160 0.0 0.0 0.00 0.01 0.01 53 1018.1
20260903131434 73 229 0.0 0.0 0.00 0.01 0.01 60 1018.5
20260903125306 74 169 0.0 0.0 0.00 0.01 0.01 66 1018.3
20260903124305 74 169 0.0 0.0 0.00 0.00 0.00 66 1018.6
20260903123257 74 210 0.0 6.0 0.00 0.00 0.00 58 1018.5
20260903122243 74 70 0.0 0.0 0.00 0.00 0.00 41 1017.4
20260903121225 74 70 0.0 0.0 0.00 0.00 0.00 39 1017.4
20260903120226 74 70 0.0 0.0 0.00 0.00 0.00 39 1017.3
20260903115230 74 338 0.0 0.0 0.00 0.00 0.00 37 1017.2
20260903114159 74 339 0.0 0.0 0.00 0.00 0.00 36 1017.2
20260903112016 74 335 0.0 0.0 0.00 0.00 0.00 44 1017.1
20260903111012 74 320 0.0 0.0 0.00 0.00 0.00 46 1017.0
20260903110002 74 320 0.0 1.0 0.00 0.00 0.00 49 1017.0
20260903104941 74 195 0.0 0.0 0.00 0.00 0.00 55 1017.1
20260903102821 75 140 0.0 0.0 0.00 0.00 0.00 66 1016.6
20260903101756 76 140 0.0 0.0 0.00 0.00 0.00 69 1016.3
20260903100800 76 140 0.0 0.0 0.00 0.00 0.00 71 1016.5
20260903095729 76 107 0.0 0.0 0.00 0.00 0.00 73 1016.5
20260903094656 77 107 0.0 0.0 0.00 0.00 0.00 73 1016.4
20260903093648 77 107 0.0 0.0 0.00 0.00 0.00 74 1016.2
20260903092704 77 107 0.0 1.0 0.00 0.00 0.00 74 1016.1
20260903091718 77 106 0.0 2.0 0.00 0.00 0.00 74 1016.0
20260903085642 77 37 0.0 0.0 0.00 0.00 0.00 74 1016.0
20260903084703 77 97 0.0 2.0 0.00 0.00 0.00 75 1016.0
20260903083702 78 58 0.0 2.0 0.00 0.00 0.00 75 1016.0
20260903081606 78 54 0.0 2.0 0.00 0.00 0.00 75 1015.9
20260903080613 78 53 0.0 4.0 0.00 0.00 0.00 75 1016.0
20260903075541 78 47 0.0 2.0 0.00 0.00 0.00 75 1015.9
20260903073422 78 56 1.0 4.0 0.00 0.00 0.00 75 1015.9
20260903072422 78 50 0.0 4.0 0.00 0.00 0.00 75 1015.8
20260903070309 78 47 0.0 1.0 0.00 0.00 0.00 75 1015.9
20260903065301 78 48 0.0 3.0 0.00 0.00 0.00 75 1016.0
20260903064315 78 72 0.0 0.0 0.00 0.00 0.00 75 1016.1
20260903063327 78 51 0.0 2.0 0.00 0.00 0.00 75 1016.0
20260903062322 78 48 0.0 0.0 0.00 0.00 0.00 75 1016.1
20260903061304 78 48 0.0 0.0 0.00 0.00 0.00 75 1016.2
20260903054011 79 51 1.0 3.0 0.00 0.00 0.00 75 1016.2
20260903053011 79 41 1.0 5.0 0.00 0.00 0.00 75 1016.1
20260903051959 79 44 1.0 4.0 0.00 0.00 0.00 74 1016.1
20260903051009 79 49 2.0 4.0 0.00 0.00 0.00 74 1016.0
20260903044937 79 37 2.0 5.0 0.00 0.00 0.00 74 1015.8
20260903043920 79 51 2.0 7.0 0.00 0.00 0.00 74 1015.8
20260903042928 80 42 2.0 7.0 0.00 0.00 0.00 74 1015.6
20260903041936 80 54 1.0 4.0 0.00 0.00 0.00 75 1015.6
20260903040917 80 34 2.0 7.0 0.00 0.00 0.00 75 1015.6
20260903035906 81 49 3.0 7.0 0.00 0.00 0.00 75 1015.6
20260903034848 81 36 2.0 7.0 0.00 0.00 0.00 75 1015.8
20260903033905 81 43 2.0 7.0 0.00 0.00 0.00 75 1015.8
20260903032836 81 41 2.0 8.0 0.00 0.00 0.00 75 1015.9
20260903031840 81 37 3.0 8.0 0.00 0.00 0.00 75 1015.9
20260903030812 81 49 2.0 6.0 0.00 0.00 0.00 75 1016.1
20260903025824 82 38 3.0 6.0 0.00 0.00 0.00 75 1016.2
20260903024813 82 49 3.0 5.0 0.00 0.00 0.00 75 1016.2
20260903023825 81 44 3.0 6.0 0.00 0.00 0.00 75 1016.2
20260903022845 82 44 3.0 6.0 0.00 0.00 0.00 75 1016.2
20260903021818 82 47 1.0 4.0 0.00 0.00 0.00 75 1016.3
20260903020807 82 53 1.0 4.0 0.00 0.00 0.00 75 1016.5
20260903015808 82 50 1.0 5.0 0.00 0.00 0.00 75 1016.5
20260903014748 82 48 2.0 5.0 0.00 0.00 0.00 75 1016.5
20260903013724 82 46 2.0 6.0 0.00 0.00 0.00 74 1016.4
20260903012732 83 46 3.0 6.0 0.00 0.00 0.00 74 1016.4
20260903011736 83 48 3.0 6.0 0.00 0.00 0.00 74 1016.3
20260903010749 82 43 2.0 6.0 0.00 0.00 0.00 75 1016.2
20260903005744 83 51 2.0 5.0 0.00 0.00 0.00 74 1016.2
20260903004717 83 60 1.0 4.0 0.00 0.00 0.00 74 1016.3
20260903002529 83 52 0.0 2.0 0.00 0.00 0.00 73 1016.1
20260903001507 84 50 1.0 4.0 0.00 0.00 0.00 72 1016.0
20260903000511 84 46 1.0 4.0 0.00 0.00 0.00 71 1016.0
20260902235443 85 52 1.0 4.0 0.00 0.00 0.00 71 1016.0
20260902234435 85 46 1.0 4.0 0.00 0.00 0.00 70 1015.9
20260902233444 86 58 1.0 3.0 0.00 0.00 0.00 70 1015.9
20260902232503 86 54 1.0 4.0 0.00 0.00 0.00 69 1015.8
20260902231457 86 58 0.0 5.0 0.00 0.00 0.00 68 1015.9
20260902230522 87 51 1.0 5.0 0.00 0.00 0.00 67 1015.8
20260902225453 87 56 1.0 4.0 0.00 0.00 0.00 67 1015.8
20260902224506 88 51 1.0 4.0 0.00 0.00 0.00 66 1015.8
20260902223435 88 47 1.0 3.0 0.00 0.00 0.00 66 1015.9
20260902222413 88 49 0.0 4.0 0.00 0.00 0.00 66 1015.8
20260902221344 88 44 1.0 4.0 0.00 0.00 0.00 64 1016.0
20260902220315 89 53 1.0 4.0 0.00 0.00 0.00 64 1016.0
20260902215312 89 97 1.0 4.0 0.00 0.00 0.00 64 1016.2
20260902214328 89 35 1.0 5.0 0.00 0.00 0.00 65 1016.2
20260902213255 89 43 1.0 5.0 0.00 0.00 0.00 63 1016.2
20260902212306 89 88 1.0 2.0 0.00 0.00 0.00 63 1016.1
20260902211249 89 67 2.0 5.0 0.00 0.00 0.00 62 1016.1
20260902210241 89 60 1.0 5.0 0.00 0.00 0.00 64 1016.1
20260902205220 89 98 1.0 6.0 0.00 0.00 0.00 62 1016.1
20260902204239 89 89 2.0 7.0 0.00 0.00 0.00 63 1016.2
20260902203302 89 97 2.0 8.0 0.00 0.00 0.00 62 1016.2
20260902202308 90 38 1.0 8.0 0.00 0.00 0.00 62 1016.3
20260902201242 90 105 3.0 7.0 0.00 0.00 0.00 61 1016.3
20260902200230 89 37 2.0 6.0 0.00 0.00 0.00 62 1016.4
20260902195222 90 43 2.0 7.0 0.00 0.00 0.00 61 1016.5
20260902194235 89 97 2.0 7.0 0.00 0.00 0.00 62 1016.6
20260902193257 89 105 3.0 7.0 0.00 0.00 0.00 62 1016.7
20260902191202 90 87 1.0 6.0 0.00 0.00 0.00 64 1017.0
20260902190213 89 40 2.0 6.0 0.00 0.00 0.00 63 1017.1
20260902185148 89 103 1.0 5.0 0.00 0.00 0.00 63 1017.0
20260902184208 89 100 2.0 5.0 0.00 0.00 0.00 64 1017.1
20260902182101 90 46 2.0 8.0 0.00 0.00 0.00 63 1017.3
20260902181038 90 53 1.0 5.0 0.00 0.00 0.00 64 1017.3
20260902180046 88 53 0.0 5.0 0.00 0.00 0.00 66 1017.5
20260902175012 88 117 2.0 8.0 0.00 0.00 0.00 65 1017.7
20260902173940 89 101 2.0 8.0 0.00 0.00 0.00 64 1017.8
20260902172917 88 42 1.0 8.0 0.00 0.00 0.00 67 1017.7
20260902171940 89 96 2.0 8.0 0.00 0.00 0.00 65 1017.9
20260902171002 88 117 2.0 6.0 0.00 0.00 0.00 68 1018.0
20260902164845 88 100 1.0 4.0 0.00 0.00 0.00 67 1018.1